Location: *
(2.5500°S, 65.9667°W)
Time: 21:20:00
(UTC+00:00)

A-11 Canister half - Visible Passes

Search period start: 12 April 2024 00:00
Search period end: 22 April 2024 00:00
Orbit: 1526 x 1682 km, 47.3° (Epoch: 11 April)

Date Brightness Start Highest point End Pass type
(mag) Time Alt. Az. Time Alt. Az. Time Alt. Az.
12 Apr 10.8 07:06:54 16° SSE 07:08:49 17° SE 07:14:40 10° E visible
12 Apr 9.1 09:05:16 14° SW 09:14:07 86° SE 09:24:10 10° NE visible
13 Apr 10.9 06:47:17 16° SE 06:47:17 16° SE 06:52:17 10° ESE visible
13 Apr 9.1 08:45:39 24° SW 08:52:21 81° SE 09:02:23 10° NE visible
14 Apr 11.1 06:27:38 13° ESE 06:27:38 13° ESE 06:29:49 10° ESE visible
14 Apr 9.1 08:26:00 37° SSW 08:30:35 76° SE 08:40:34 10° NE visible
14 Apr 11.2 23:27:34 10° SW 23:29:43 11° SW 23:31:52 10° SSW visible
15 Apr 9.1 08:06:17 53° SSW 08:08:50 71° SE 08:18:44 10° NE visible
15 Apr 11.2 23:04:33 10° WSW 23:07:53 12° SW 23:11:12 10° SSW visible
16 Apr 9.1 07:46:31 65° SSE 07:47:05 66° SE 07:56:54 10° NE visible
16 Apr 10.0 09:44:51 11° W 09:52:04 26° NW 09:59:59 10° N visible
16 Apr 11.1 22:41:52 10° WSW 22:46:03 13° SW 22:50:13 10° SSW visible
17 Apr 9.4 07:26:39 57° E 07:26:39 57° E 07:35:04 10° NE visible
17 Apr 9.9 09:25:00 18° W 09:30:16 29° NW 09:38:28 10° N visible
18 Apr 9.9 07:06:44 42° ENE 07:06:44 42° ENE 07:13:12 10° NE visible
18 Apr 9.8 09:05:04 25° W 09:08:29 31° NW 09:16:53 10° N visible
19 Apr 10.3 06:46:43 30° ENE 06:46:43 30° ENE 06:51:19 10° NE visible
19 Apr 9.7 08:45:03 31° WNW 08:46:42 33° NW 08:55:19 10° N visible
20 Apr 10.8 06:26:38 21° ENE 06:26:38 21° ENE 06:29:25 10° ENE visible
20 Apr 9.6 08:24:57 36° NW 08:24:57 36° NW 08:33:43 10° NNE visible
21 Apr 11.1 06:06:28 14° ENE 06:06:28 14° ENE 06:07:31 10° ENE visible
21 Apr 9.7 08:04:46 36° NNW 08:04:46 36° NNW 08:12:07 10° NNE visible
